This demonstration page uses our WeatherBlox Daily Observations layout. Learn more.

41.55636, -103.73856

Hourly Observations for May 13, 2015

Temp ( °F °C ) Dew Point ( °F °C ) Humidity (%) Winds ( mph kmh ) Pressure ( in mb ) Visibility ( mi km ) Precip ( " mm )
12:53 am 00:53 Clear 54 12.2 45 7.2 72 72 ESE 12 19 29.8 1009 10 16.0934 0 0
1:53 am 01:53 Clear 52 11.1 45 7.2 77 77 E 10 17 29.8 1009 10 16.0934 0 0
2:53 am 02:53 Clear 51 10.6 46 7.8 83 83 ESE 14 22 29.78 1009 10 16.0934 0 0
3:53 am 03:53 Clear 49 9.4 46 7.8 90 90 ESE 10 17 29.78 1008 10 16.0934 0 0
4:53 am 04:53 Clear 49 9.4 46 7.8 90 90 undefined N/A 29.77 1008 10 16.0934 0 0
5:53 am 05:53 Sunny 49 9.4 46 7.8 90 90 ESE 10 17 29.76 1008 10 16.0934 0 0
6:53 am 06:53 Sunny 50 10 47 8.3 89 89 SSE 7 11 29.8 1009 10 16.0934 0 0
7:53 am 07:53 Sunny 52 11.1 48 8.9 86 86 E 10 17 29.81 1010 10 16.0934 0 0
8:53 am 08:53 Sunny 55 12.8 49 9.4 80 80 SE 9 15 29.83 1010 10 16.0934 0 0
9:53 am 09:53 Partly Cloudy 56 13.3 49 9.4 77 77 Calm 29.83 1010 10 16.0934 0 0
10:53 am 10:53 Mostly Cloudy 58 14.4 50 10 75 75 W 13 20 29.84 1011 10 16.0934 0 0
11:53 am 11:53 Cloudy 58 14.4 49 9.4 72 72 SSE 6 9 29.87 1012 10 16.0934 0 0
12:53 pm 12:53 Cloudy 59 15 50 10 72 72 SSW 6 9 29.86 1011 10 16.0934 0 0.0254
1:53 pm 13:53 Cloudy with Light Rain 59 15 52 11.1 78 78 E 7 11 29.87 1012 10 16.0934 0 0.0254
2:53 pm 14:53 Sunny 62 16.7 52 11.1 70 70 Calm 29.85 1011 10 16.0934 0 0.0254
3:53 pm 15:53 Cloudy 62 16.7 52 11.1 70 70 SE 9 15 29.84 1011 10 16.0934 0 0
4:53 pm 16:53 Cloudy 63 17.2 51 10.6 65 65 S 13 20 29.84 1011 10 16.0934 0 0
5:53 pm 17:53 Cloudy 61 16.1 50 10 67 67 S 9 15 29.84 1011 10 16.0934 0 0
6:53 pm 18:53 Mostly Cloudy 58 14.4 51 10.6 78 78 S 9 15 29.85 1011 10 16.0934 0 0
7:53 pm 19:53 Cloudy 57 13.9 50 10 78 78 SSE 6 9 29.85 1011 10 16.0934 0 0
8:53 pm 20:53 Mostly Cloudy 55 12.8 49 9.4 80 80 ESE 7 11 29.85 1011 10 16.0934 0 0
9:53 pm 21:53 Clear 51 10.6 49 9.4 92 92 E 8 13 29.86 1011 10 16.0934 0 0
10:53 pm 22:53 Partly Cloudy 50 10 48 8.9 93 93 E 6 9 29.88 1012 10 16.0934 0 0
11:53 pm 23:53 Mostly Cloudy 50 10 49 9.4 96 96 Calm 29.88 1012 10 16.0934 0 0

Powered by AerisWeather